Temp
43 42 42 42 42 42 42 41 41 41 41 41 41 41 41 41 42 41 41 41 40 41 42 41 42 43 43 43 42 45 45 45 44 50 36 31 31 34 34 35 35 35 38
41 40 40 40 39 39 39 39 39 38 39 38 39 39 39 39 40 39 39 39 39 39 40 40 40 42 41 41 41 41 43 44 42 43 39 29 30 32 34 34 35 36 35
39 38 37 37 36 36 36 36 36 36 36 37 37 36 37 37 37 38 38 38 38 38 39 39 39 40 39 40 40 38 40 42 40 41 42 28 28 30 29 33 32 33 35
36 35 34 33 33 33 33 33 33 34 33 34 34 34 35 35 36 36 36 36 36 37 37 37 38 38 38 39 39 39 39 38 38 38 39 29 28 28 31 29 27 31 31
33 33 32 32 32 31 31 31 31 31 31 31 31 32 33 34 36 35 35 35 34 34 35 37 38 37 38 39 39 39 38 36 36 35 36 35 31 26 28 30 29 29 30
30 30 30 30 29 29 29 29 29 29 29 30 30 30 30 33 36 37 36 33 33 33 32 34 35 36 37 39 40 40 40 37 36 36 36 36 35 33 31 30 30 25 22
29 29 28 27 26 27 27 28 27 26 27 27 28 28 28 30 35 35 35 33 33 33 33 33 33 35 35 35 37 39 38 40 41 39 37 37 37 38 33 31 30 29 29
26 26 26 25 25 26 26 25 25 25 25 26 26 27 27 29 33 34 35 33 33 33 34 34 34 34 35 35 35 35 36 36 36 37 39 40 40 40 36 33 31 29 23
24 24 24 24 23 23 23 23 23 23 24 25 27 26 26 27 32 33 33 32 31 31 32 33 33 34 36 37 35 32 33 34 38 40 40 41 41 39 36 31 27 23 20
22 22 22 22 21 21 21 21 23 23 25 25 26 26 26 26 30 32 32 30 28 28 30 31 32 33 35 36 33 32 30 32 33 34 33 35 37 35 36 32 29 24 23
20 20 20 20 20 21 20 21 21 21 22 21 23 24 25 26 27 31 31 29 28 27 27 27 29 32 33 34 35 32 31 33 33 33 32 31 32 31 32 31 29 29 23
17 17 16 17 19 19 17 18 19 19 18 19 19 21 23 25 27 28 30 30 31 27 25 27 27 31 33 33 33 34 36 36 32 32 27 27 26 25 21 21 24 23 26
12 11 14 15 16 16 15 15 15 16 16 16 18 19 20 23 24 27 27 29 29 27 27 29 31 30 31 32 33 34 33 31 31 27 23 23 21 18 16 16 18 19 19
8 11 13 13 12 14 14 15 13 14 14 16 18 17 18 20 20 22 24 24 25 25 26 24 26 29 31 32 29 31 31 31 29 25 22 18 16 15 14 15 14 14 12
9 10 11 11 10 10 12 12 14 16 18 18 17 18 16 16 19 25 24 22 23 24 22 19 19 20 22 24 27 28 29 26 22 20 17 15 14 14 12 14 13 12 10
6 7 7 7 7 9 9 9 17 19 21 22 23 22 19 23 24 24 25 25 25 23 15 11 12 14 15 18 22 24 22 20 20 18 16 15 13 12 11 12 12 11 10
-3 2 3 5 6 6 7 6 5 11 18 19 20 20 21 22 21 22 23 22 19 17 8 8 8 9 10 14 19 22 22 19 18 17 16 15 14 12 11 10 10 10 9
-8 -0 2 4 4 4 5 5 6 5 4 6 13 15 18 18 19 21 19 15 6 8 6 5 5 6 9 11 17 20 21 17 17 16 15 14 13 11 10 9 10 9 7
-1 -0 -1 -0 1 2 2 3 4 3 3 3 5 9 9 14 17 17 15 3 3 3 4 4 5 6 7 10 14 18 17 16 15 14 14 13 13 12 10 10 10 9 6
-10 -4 -2 -5 -3 -3 -1 -0 0 0 0 1 1 2 3 8 6 3 3 3 2 3 3 3 4 5 7 7 8 15 15 14 14 13 13 13 12 12 10 9 8 7 6
-12 -11 -6 -8 -10 -9 -6 -5 -2 -3 -2 -2 -1 2 12 6 0 0 1 2 2 3 3 3 3 4 5 6 6 7 13 13 13 12 12 11 11 10 10 10 8 7 6
-14 -13 -13 -12 -9 -9 -9 -6 -5 -5 -4 -4 -2 -1 8 -1 -1 0 1 2 3 4 4 4 3 3 3 3 4 4 6 10 11 11 10 10 9 9 8 8 6 5 4
-14 -13 -12 -13 -14 -12 -9 -11 -11 -9 -6 -5 -4 -3 -3 -2 -1 -0 1 2 3 3 4 4 3 2 3 3 4 3 3 5 7 10 8 8 7 7 7 5 4 3 2
-17 -17 -15 -13 -14 -13 -13 -10 -8 -8 -7 -6 -5 -4 -3 -3 -2 -1 1 2 3 3 3 4 3 2 2 2 2 2 3 6 6 6 7 6 5 5 5 4 3 2 2
-22 -19 -19 -16 -16 -14 -13 -11 -9 -8 -7 -6 -5 -4 -3 -2 -2 -1 0 1 2 2 1 2 3 3 2 1 1 1 3 5 4 5 5 5 4 4 3 2 1 1 0
-20 -19 -17 -17 -16 -16 -15 -12 -10 -9 -8 -6 -6 -5 -4 -4 -3 -2 -1 -0 0 0 -0 1 2 2 1 2 1 4 6 8 6 4 2 3 2 1 1 0 -1 -1 -2
MSLP
1027.91 1027.53 1027.29 1027.20 1027.05 1026.73 1026.67 1026.89 1026.50 1026.26 1026.04 1025.01 1024.52 1024.23 1023.62 1023.15 1022.71 1022.41 1021.95 1021.09 1020.46 1019.98 1019.58 1019.08 1018.62 1018.20 1017.82 1017.59 1017.60 1017.31 1017.01 1017.07 1016.31 1014.69 1015.75 1015.95 1016.18 1016.38 1016.03 1016.27 1017.23 1017.59 1017.79
1028.33 1028.10 1027.98 1027.82 1027.91 1027.74 1027.55 1027.58 1027.25 1026.74 1025.97 1025.42 1024.91 1024.74 1024.55 1024.10 1023.40 1022.69 1022.06 1021.15 1020.32 1019.97 1019.25 1019.13 1018.34 1017.89 1017.59 1017.43 1016.99 1016.59 1016.44 1016.05 1016.36 1015.24 1015.14 1015.69 1015.85 1015.90 1015.82 1016.21 1016.65 1016.91 1017.12
1028.84 1029.00 1029.10 1029.18 1028.92 1029.07 1028.74 1027.92 1027.25 1026.52 1025.98 1025.88 1025.75 1025.59 1025.30 1024.60 1023.69 1022.70 1021.75 1021.07 1020.53 1019.99 1019.88 1018.87 1018.02 1017.66 1017.11 1016.81 1016.36 1015.86 1015.76 1015.42 1015.25 1015.01 1014.37 1014.99 1015.27 1015.67 1016.18 1016.41 1016.16 1016.26 1016.60
1030.04 1030.09 1030.09 1029.79 1029.46 1029.11 1029.06 1028.49 1027.56 1027.04 1026.61 1026.27 1025.99 1025.85 1025.29 1024.42 1023.21 1021.99 1021.29 1020.81 1020.52 1020.41 1019.44 1018.54 1017.96 1017.49 1016.77 1016.20 1015.62 1015.30 1015.02 1014.59 1014.30 1014.04 1013.39 1013.90 1014.09 1014.50 1015.15 1015.75 1016.36 1016.04 1016.10
1030.71 1030.65 1030.57 1030.00 1029.67 1029.47 1029.26 1028.71 1028.05 1027.42 1026.80 1026.49 1026.17 1025.56 1024.81 1024.06 1022.89 1022.05 1021.48 1021.22 1020.41 1019.15 1018.69 1018.23 1017.61 1016.93 1016.49 1015.98 1015.46 1014.51 1014.19 1013.71 1013.39 1013.12 1012.54 1012.62 1012.73 1013.25 1013.28 1013.79 1014.88 1015.73 1016.08
1031.29 1030.88 1030.62 1030.18 1030.04 1029.75 1029.39 1028.99 1028.54 1027.61 1026.71 1025.83 1025.04 1024.78 1024.16 1023.82 1023.25 1022.67 1022.31 1021.18 1020.30 1019.29 1018.01 1017.53 1017.18 1016.46 1015.66 1014.98 1014.51 1013.91 1013.39 1012.97 1012.31 1011.96 1011.34 1010.85 1010.49 1011.03 1011.61 1012.17 1013.05 1014.60 1015.34
1031.17 1031.16 1030.83 1030.75 1030.57 1030.23 1029.57 1028.85 1028.00 1026.98 1026.08 1025.53 1025.31 1025.11 1024.78 1024.21 1023.67 1023.02 1021.93 1020.78 1020.27 1019.19 1018.50 1017.54 1016.52 1016.23 1015.50 1014.58 1013.59 1012.79 1012.08 1011.72 1011.19 1010.55 1009.77 1009.14 1008.95 1009.02 1009.79 1010.46 1011.05 1011.57 1011.51
1031.31 1031.85 1031.22 1031.23 1030.78 1030.05 1029.55 1028.65 1027.99 1026.99 1026.52 1026.33 1026.00 1025.64 1025.24 1024.60 1023.82 1022.82 1021.63 1020.68 1020.04 1019.51 1018.67 1017.60 1016.74 1015.43 1014.96 1014.23 1013.01 1011.73 1010.87 1010.18 1009.95 1009.52 1008.74 1007.70 1007.51 1007.55 1008.06 1008.50 1009.35 1010.39 1011.79
1032.05 1032.07 1031.66 1031.59 1030.94 1030.10 1029.32 1028.88 1028.48 1027.87 1027.13 1026.64 1026.43 1026.13 1025.50 1024.63 1023.25 1022.86 1021.92 1020.92 1019.87 1018.89 1018.12 1017.32 1016.66 1015.25 1013.99 1013.34 1012.41 1011.16 1009.61 1008.36 1008.39 1007.90 1007.37 1006.80 1006.48 1006.56 1006.90 1007.83 1008.30 1009.42 1010.94
1032.43 1032.17 1031.82 1031.67 1031.25 1030.52 1030.31 1029.85 1028.97 1028.17 1027.79 1027.51 1026.91 1026.15 1025.42 1024.50 1023.63 1022.99 1022.18 1021.01 1019.79 1018.63 1017.50 1016.55 1015.89 1015.07 1013.70 1012.85 1011.97 1010.69 1009.18 1007.61 1007.04 1006.42 1006.09 1005.72 1005.54 1005.35 1005.61 1005.76 1006.46 1007.31 1008.77
1032.75 1032.37 1032.23 1032.39 1031.80 1031.89 1030.91 1029.73 1029.21 1028.91 1028.29 1027.56 1026.87 1025.99 1025.28 1024.47 1023.61 1022.82 1022.11 1021.27 1020.32 1018.61 1017.43 1015.83 1014.86 1014.09 1012.94 1011.78 1010.77 1009.69 1008.19 1007.15 1005.92 1005.30 1004.81 1004.68 1004.57 1004.63 1004.66 1005.03 1005.20 1005.75 1006.98
1033.09 1033.37 1033.51 1033.00 1032.65 1031.62 1030.63 1030.00 1029.55 1029.09 1028.47 1027.61 1026.82 1025.77 1024.95 1024.20 1023.48 1022.59 1021.89 1021.35 1020.34 1019.35 1017.59 1015.96 1014.57 1012.99 1011.56 1010.11 1008.96 1007.74 1006.62 1005.71 1004.75 1003.75 1003.85 1004.04 1004.27 1004.47 1004.80 1005.30 1005.46 1005.89 1006.20
1034.56 1034.50 1033.73 1032.79 1032.19 1031.74 1031.09 1030.51 1030.11 1029.54 1028.71 1027.80 1026.88 1025.79 1024.96 1024.33 1023.59 1022.76 1021.79 1020.65 1019.75 1018.70 1017.57 1015.99 1014.31 1012.46 1010.56 1008.72 1007.14 1006.12 1005.16 1004.39 1003.51 1002.95 1003.26 1003.73 1004.30 1004.89 1005.41 1006.05 1006.25 1006.74 1007.25
1034.82 1034.09 1033.44 1032.99 1032.35 1031.79 1031.51 1031.17 1030.54 1029.77 1028.92 1027.97 1026.99 1026.16 1025.14 1024.25 1023.60 1022.70 1021.35 1020.33 1019.23 1017.93 1016.56 1014.99 1013.70 1012.11 1010.19 1008.40 1006.42 1005.21 1004.32 1003.43 1002.79 1002.70 1003.01 1003.68 1004.44 1005.14 1005.73 1006.17 1006.85 1007.48 1008.28
1034.87 1034.30 1033.77 1033.23 1032.92 1032.48 1031.89 1031.31 1030.49 1029.94 1029.25 1028.17 1027.49 1026.55 1025.48 1024.35 1023.53 1022.50 1021.54 1020.14 1019.00 1017.78 1016.36 1015.05 1013.54 1011.93 1010.14 1008.22 1006.37 1005.10 1003.93 1003.03 1002.73 1002.83 1003.33 1003.84 1004.58 1005.30 1006.12 1006.65 1007.07 1007.62 1008.18
1035.10 1034.38 1033.98 1033.66 1033.32 1032.84 1032.07 1030.78 1030.18 1029.59 1028.90 1028.24 1027.43 1026.68 1025.57 1024.79 1023.19 1022.18 1021.03 1019.83 1018.91 1018.08 1016.86 1016.07 1014.48 1013.04 1011.32 1009.29 1007.19 1005.23 1004.23 1003.60 1003.18 1003.19 1003.54 1003.90 1004.56 1005.32 1006.22 1006.85 1007.40 1008.02 1008.49
1035.23 1034.65 1034.37 1033.95 1033.31 1032.69 1032.09 1031.57 1030.57 1029.25 1028.98 1028.19 1027.39 1026.51 1025.74 1024.53 1023.54 1022.49 1021.05 1020.13 1019.65 1018.58 1017.94 1016.53 1015.47 1014.14 1012.34 1010.39 1008.12 1006.03 1004.55 1003.98 1003.74 1003.72 1003.88 1004.23 1004.80 1005.51 1006.25 1006.94 1007.60 1008.31 1008.98
1035.31 1035.03 1034.60 1034.08 1033.66 1033.18 1032.67 1032.02 1031.25 1030.21 1028.96 1028.18 1027.77 1026.86 1025.71 1025.03 1023.87 1022.38 1021.63 1020.59 1019.52 1018.87 1018.52 1017.44 1016.11 1014.83 1013.16 1011.26 1008.75 1006.57 1005.06 1004.48 1004.21 1004.20 1004.31 1004.63 1005.10 1005.58 1006.31 1006.91 1007.55 1008.42 1009.17
1035.35 1035.00 1034.69 1034.39 1034.00 1033.49 1032.90 1032.13 1031.34 1030.59 1029.60 1028.41 1027.18 1026.24 1026.04 1024.82 1023.29 1022.74 1022.12 1021.98 1020.97 1019.71 1018.58 1017.67 1016.74 1015.38 1013.77 1011.94 1009.81 1007.53 1006.20 1005.42 1004.97 1004.74 1004.78 1005.00 1005.40 1005.79 1006.42 1007.07 1007.73 1008.51 1009.35
1035.39 1035.17 1034.85 1034.54 1034.16 1033.61 1032.96 1032.27 1031.41 1030.48 1029.57 1028.74 1027.82 1026.88 1025.59 1023.99 1023.04 1022.76 1022.61 1022.03 1021.22 1020.18 1019.11 1018.04 1016.84 1015.71 1014.35 1012.90 1011.10 1008.77 1007.39 1006.57 1006.01 1005.67 1005.56 1005.61 1005.86 1006.19 1006.55 1007.08 1007.75 1008.63 1009.51
1035.33 1035.06 1034.78 1034.48 1034.24 1033.68 1032.96 1032.22 1031.27 1030.54 1029.64 1028.73 1027.79 1026.97 1025.89 1025.06 1024.40 1023.54 1022.72 1021.90 1021.06 1020.05 1019.07 1018.12 1017.06 1016.04 1014.92 1013.68 1012.21 1010.52 1008.70 1007.71 1007.08 1006.67 1006.46 1006.39 1006.59 1006.83 1007.15 1007.63 1008.29 1009.03 1009.79
1035.17 1034.91 1034.79 1034.65 1033.98 1033.36 1032.66 1031.88 1031.23 1030.51 1029.59 1028.61 1027.50 1026.73 1025.90 1025.46 1024.56 1023.54 1022.57 1021.75 1020.85 1019.94 1019.07 1018.22 1017.27 1016.42 1015.46 1014.40 1013.24 1011.90 1010.45 1009.12 1008.19 1007.60 1007.32 1007.20 1007.27 1007.54 1007.83 1008.21 1008.75 1009.44 1010.17
1035.16 1035.10 1034.77 1034.23 1033.66 1032.98 1032.34 1031.63 1031.05 1030.24 1029.31 1028.51 1027.57 1026.53 1025.69 1024.99 1024.18 1023.28 1022.38 1021.49 1020.57 1019.64 1018.76 1018.00 1017.15 1016.26 1015.53 1014.75 1013.88 1013.01 1011.83 1010.58 1009.56 1008.68 1008.26 1008.06 1008.01 1008.13 1008.41 1008.76 1009.21 1009.76 1010.44
1034.90 1034.73 1034.53 1033.91 1033.35 1032.78 1032.16 1031.24 1030.38 1029.58 1028.83 1028.06 1027.27 1026.42 1025.48 1024.59 1023.74 1022.88 1022.09 1021.23 1020.35 1019.50 1018.66 1017.77 1016.91 1016.19 1015.45 1014.73 1014.01 1013.24 1012.39 1011.32 1010.45 1009.62 1009.06 1008.79 1008.70 1008.77 1008.91 1009.17 1009.61 1010.10 1010.71
1034.68 1034.46 1034.17 1033.66 1033.03 1032.40 1031.65 1030.80 1029.90 1029.06 1028.34 1027.70 1026.83 1025.95 1025.01 1024.12 1023.37 1022.54 1021.73 1020.91 1020.10 1019.32 1018.41 1017.53 1016.63 1015.89 1015.24 1014.61 1013.95 1013.26 1012.36 1011.56 1010.99 1010.39 1009.76 1009.35 1009.22 1009.31 1009.50 1009.77 1010.15 1010.66 1011.12
1033.98 1033.75 1033.36 1032.82 1032.29 1031.73 1031.25 1030.40 1029.55 1028.77 1028.10 1027.24 1026.34 1025.43 1024.56 1023.70 1023.03 1022.27 1021.41 1020.62 1019.83 1019.02 1018.09 1017.12 1016.26 1015.52 1014.90 1014.28 1013.65 1012.90 1012.10 1011.42 1010.79 1010.69 1010.43 1010.08 1009.91 1009.96 1010.10 1010.35 1010.71 1011.11 1011.58
Wind_Speed
8 7 9 9 9 9 8 9 10 9 9 10 10 11 11 12 12 11 10 10 9 11 9 10 11 10 8 7 5 8 9 8 11 12 2 3 5 9 8 9 8 7 6
7 9 11 11 11 11 11 10 9 10 10 10 11 12 12 11 12 11 12 11 12 13 12 12 13 8 11 9 8 11 10 9 10 18 5 4 6 8 9 11 9 7 7
10 9 9 9 9 9 9 9 10 11 11 11 10 11 11 11 12 11 11 13 13 13 13 13 14 12 13 10 10 9 9 9 9 11 12 3 3 4 3 6 9 8 7
6 5 6 7 8 8 9 9 9 9 9 10 9 9 9 10 10 10 13 14 14 14 13 13 14 14 15 13 11 12 11 11 10 11 12 5 3 4 7 8 7 8 9
5 5 7 7 8 7 8 9 9 8 8 8 8 8 9 10 11 17 16 16 17 17 15 15 14 15 20 20 13 15 13 11 11 11 12 8 7 5 13 9 9 8 8
4 6 7 8 9 9 10 9 9 9 9 10 12 13 14 11 25 27 23 17 17 17 17 16 16 18 18 23 22 26 23 17 16 13 12 14 16 12 9 10 11 9 8
6 8 9 9 9 9 10 10 11 13 13 14 14 14 14 14 26 28 26 15 17 18 19 19 18 13 17 18 22 25 24 27 29 21 19 18 17 15 13 14 15 15 11
8 8 10 10 11 11 10 12 13 13 14 13 13 14 14 11 25 27 29 17 17 18 19 20 21 23 21 21 20 21 20 18 17 15 20 22 18 15 15 18 18 14 4
9 9 10 10 11 11 13 14 13 12 12 13 13 14 13 14 25 27 26 17 16 18 16 17 18 22 27 30 21 21 21 20 18 26 30 31 28 26 18 10 12 12 7
11 11 11 11 11 11 11 11 11 11 12 10 12 12 14 14 21 26 24 13 16 15 18 18 25 26 32 33 23 20 20 21 17 16 13 19 24 18 25 19 14 15 9
10 10 10 10 11 9 10 9 11 11 11 11 12 12 13 13 15 26 28 15 14 16 16 17 16 34 37 37 36 23 22 21 24 16 14 11 10 11 11 14 14 14 12
10 10 9 8 7 8 10 10 11 11 11 12 12 11 10 13 20 23 30 29 28 17 18 17 19 38 40 40 33 34 33 28 17 13 8 8 7 5 2 3 5 3 6
7 7 6 7 8 8 9 10 9 10 9 10 10 12 13 12 12 26 29 33 31 22 16 27 40 41 41 32 35 34 29 14 13 8 8 7 3 6 7 6 8 10 9
6 6 7 7 10 9 7 6 7 7 9 10 12 13 13 13 12 13 14 16 23 19 25 20 27 32 32 28 22 18 12 12 10 8 6 5 6 6 6 4 6 7 8
5 5 5 5 6 8 7 7 8 8 10 11 11 12 13 14 14 28 27 19 17 22 25 16 15 15 15 15 14 13 12 8 5 4 6 6 6 6 5 5 6 6 5
4 4 5 5 6 5 6 11 13 16 20 21 22 18 12 23 32 35 36 35 36 35 14 13 15 15 16 17 17 15 8 5 3 4 5 6 6 7 6 5 6 4 7
3 4 4 5 5 7 7 7 10 13 20 21 23 25 26 28 32 33 32 35 30 25 10 12 13 15 16 17 16 16 13 4 2 3 4 5 6 6 8 7 6 6 7
3 5 3 5 5 6 7 8 8 10 12 9 13 19 22 27 29 29 31 25 15 13 10 12 13 15 16 17 17 16 11 2 1 2 3 5 6 8 7 7 7 7 7
3 3 3 4 5 6 7 7 7 8 9 10 11 14 13 25 27 27 25 8 11 12 12 12 12 13 15 15 17 14 7 4 1 2 3 4 5 6 7 6 7 9 10
3 6 4 3 5 6 6 6 7 7 8 9 9 10 13 16 13 13 10 10 10 10 11 12 12 13 13 14 15 14 7 5 3 2 2 3 4 5 6 8 8 9 7
2 3 4 3 4 5 5 6 7 7 8 9 9 9 24 13 12 11 11 10 10 11 11 11 11 12 12 12 13 13 10 5 4 3 2 2 3 3 4 5 6 7 8
2 3 3 4 5 5 5 6 6 7 8 9 10 10 23 8 9 10 11 11 11 10 10 10 10 10 10 11 12 12 12 10 6 3 2 2 3 4 4 6 7 7 8
2 4 5 5 4 6 6 5 5 5 7 8 9 10 9 9 9 10 11 11 11 11 10 9 10 9 9 9 9 9 10 9 9 5 3 2 2 3 4 5 6 7 7
3 4 5 5 4 5 5 6 7 7 7 9 9 9 9 9 10 12 11 11 11 10 10 10 9 11 10 9 8 8 8 9 7 6 5 2 2 3 3 4 5 7 7
3 4 4 5 5 6 6 7 7 8 8 9 9 9 10 10 11 11 11 10 10 10 11 11 9 11 12 14 11 12 11 11 7 8 5 3 3 4 3 3 5 5 6
3 4 4 4 5 5 5 7 8 8 8 9 9 9 10 10 11 11 11 11 11 11 12 9 11 14 14 11 10 13 12 13 5 4 4 3 2 2 3 4 6 4 6
Wind_Direction
20 21 25 20 15 17 20 4 359 347 339 351 351 344 345 341 336 329 319 310 308 305 296 285 280 274 268 262 240 250 253 246 257 268 242 206 194 200 186 181 182 185 200
16 22 20 14 8 8 5 355 346 344 347 351 353 350 344 336 327 323 317 317 314 309 305 294 289 289 277 267 259 255 254 241 245 266 242 215 214 215 197 186 184 183 183
16 16 11 4 1 351 340 341 345 347 350 346 343 337 327 323 318 313 317 318 313 308 297 294 296 291 285 280 265 258 255 249 235 247 257 188 181 178 176 203 191 173 176
4 1 359 354 346 340 331 332 338 336 334 337 331 317 314 309 307 326 331 326 317 304 303 298 293 287 282 283 274 267 261 253 241 240 247 201 178 182 188 187 198 196 184
354 3 357 347 344 332 331 336 334 329 327 320 319 326 335 335 346 342 336 325 318 317 314 308 299 293 284 276 278 279 271 257 252 247 247 228 205 166 198 184 198 186 194
349 11 0 359 350 345 338 332 330 330 337 344 353 350 350 346 341 341 336 326 321 317 316 314 308 304 300 296 282 269 263 267 260 251 248 239 231 216 191 189 181 170 192
20 10 8 357 347 341 338 341 347 349 349 354 351 346 342 339 339 337 335 330 326 328 324 320 317 313 310 304 297 289 279 266 258 262 254 244 243 226 199 194 195 200 201
24 4 5 356 346 345 341 351 349 353 352 345 340 341 335 329 335 337 338 333 325 321 319 320 316 313 313 311 303 296 287 275 266 258 256 256 246 242 206 202 199 194 79
15 0 360 350 342 345 355 350 345 344 343 344 338 328 327 328 337 336 336 329 320 317 317 316 311 307 307 312 307 302 290 280 270 263 256 255 252 242 215 190 187 169 172
3 354 350 344 343 349 343 334 337 345 336 328 325 329 325 324 330 335 337 327 323 321 317 314 311 310 311 308 300 297 294 289 282 271 260 257 253 232 215 199 181 185 166
354 349 345 337 342 328 325 342 346 333 329 331 329 328 325 328 328 333 336 334 323 320 318 314 312 311 308 306 302 294 286 291 281 269 262 245 236 220 206 202 189 188 176
357 337 320 320 317 340 351 340 341 338 333 331 329 326 330 330 328 331 333 328 327 322 313 311 306 308 308 303 299 295 292 288 282 258 242 230 213 198 85 95 149 133 184
325 287 294 330 353 348 348 342 337 334 332 329 329 329 328 326 326 328 322 327 328 321 311 308 313 310 307 304 297 293 290 281 277 247 216 206 147 121 111 87 84 84 67
302 329 344 345 341 347 341 327 322 328 329 328 329 324 322 325 326 319 325 326 320 320 321 317 311 310 308 316 298 293 285 279 273 227 200 144 124 134 132 126 124 121 103
307 320 336 345 342 329 324 323 327 324 320 325 321 320 323 321 319 328 329 323 327 325 330 320 320 321 318 315 316 302 289 274 207 172 161 152 142 137 129 139 137 138 128
314 345 348 336 328 319 322 323 326 326 326 323 323 324 319 317 328 329 325 333 333 334 330 326 325 325 322 319 314 308 298 270 244 170 163 155 152 151 146 134 137 139 142
353 331 326 318 322 330 328 322 318 322 322 325 328 330 328 328 331 328 335 332 337 337 331 328 327 325 321 316 314 312 301 265 217 186 164 151 145 141 146 143 138 130 126
330 299 300 322 319 316 314 307 304 310 316 317 320 320 326 328 329 333 337 340 329 340 329 326 324 324 320 318 315 318 303 290 219 151 148 148 152 148 150 152 150 147 134
333 327 321 306 302 298 301 294 295 296 301 308 317 322 323 325 326 339 340 330 321 322 327 325 323 322 322 323 319 323 322 319 341 131 136 145 147 151 151 150 144 143 136
320 290 292 294 301 296 287 288 295 303 309 308 312 317 323 322 337 334 328 320 318 317 319 319 323 324 324 327 326 325 324 334 347 19 111 132 144 154 152 148 148 146 144
263 275 269 286 270 267 274 284 299 300 300 304 305 313 322 334 315 311 315 317 317 317 318 318 321 322 325 327 331 331 330 332 340 1 34 78 113 125 126 131 133 133 135
269 287 299 286 290 292 283 288 288 288 295 302 306 306 319 314 306 309 311 312 312 312 313 314 314 318 322 327 330 334 337 342 343 353 30 75 97 111 122 130 130 133 134
302 297 289 283 269 281 291 275 273 277 293 297 301 305 309 306 306 307 308 309 311 314 314 313 313 315 321 324 326 329 331 338 333 338 1 43 87 112 125 133 134 132 137
262 269 277 283 292 289 279 285 291 285 293 301 300 298 300 302 304 305 304 308 310 310 312 312 312 311 316 321 321 323 324 332 339 345 351 27 79 103 110 114 122 129 130
262 273 274 275 282 290 296 297 300 302 301 295 295 296 301 304 305 305 306 307 307 308 312 310 308 312 314 316 312 315 312 322 337 345 348 16 77 92 96 103 118 120 123
272 275 275 283 287 284 286 293 291 290 290 291 296 300 302 305 303 304 306 306 306 311 306 306 306 307 309 309 307 309 318 319 299 347 355 11 57 78 90 108 124 128 139